EN

Hourly Weather Brzostowa

Today, 20 April, Tuesday

Time Temperature Precipitation Wind Pressure Humidity
00:00 +6°C° 0 mm 2 mps 745 mmHg 84%
01:00 +6°C° 0 mm 2 mps 745 mmHg 85%
02:00 +6°C° 0 mm 2 mps 744 mmHg 86%
03:00 +5°C° 0 mm 2 mps 744 mmHg 87%
04:00 +5°C° 0 mm 2 mps 744 mmHg 87%
05:00 +6°C° 0 mm 2 mps 744 mmHg 83%
06:00 +7°C° 0 mm 2 mps 744 mmHg 80%
07:00 +8°C° 0 mm 3 mps 745 mmHg 76%
08:00 +10°C° 0.1 mm 3 mps 744 mmHg 68%
09:00 +11°C° 0.1 mm 3 mps 744 mmHg 61%
10:00 +12°C° 0.1 mm 3 mps 744 mmHg 54%
11:00 +13°C° 0.1 mm 3 mps 744 mmHg 51%
12:00 +13°C° 0.1 mm 3 mps 743 mmHg 49%
13:00 +15°C° 0.1 mm 2 mps 743 mmHg 46%
14:00 +13°C° 0.1 mm 3 mps 743 mmHg 49%
15:00 +13°C° 0.1 mm 3 mps 743 mmHg 52%
16:00 +13°C° 0.1 mm 3 mps 743 mmHg 55%
17:00 +12°C° 0 mm 3 mps 743 mmHg 60%
18:00 +10°C° 0 mm 2 mps 743 mmHg 64%
19:00 +10°C° 0 mm 1 mps 743 mmHg 69%
20:00 +9°C° 0 mm 1 mps 743 mmHg 70%
21:00 +9°C° 0 mm 1 mps 743 mmHg 70%
22:00 +8°C° 0 mm 1 mps 743 mmHg 71%
23:00 +7°C° 0 mm 2 mps 743 mmHg 71%

Tomorrow, 21 April, Wednesday

Time Temperature Precipitation Wind Pressure Humidity
00:00 +7°C° 0 mm 2 mps 743 mmHg 71%
01:00 +6°C° 0 mm 2 mps 743 mmHg 71%
02:00 +6°C° 0 mm 2 mps 742 mmHg 73%
03:00 +6°C° 0 mm 2 mps 742 mmHg 74%
04:00 +6°C° 0 mm 2 mps 742 mmHg 76%
05:00 +7°C° 0 mm 3 mps 742 mmHg 76%
06:00 +8°C° 0 mm 3 mps 742 mmHg 75%
07:00 +10°C° 0 mm 3 mps 742 mmHg 75%
08:00 +11°C° 0.5 mm 4 mps 742 mmHg 71%
09:00 +12°C° 0.5 mm 5 mps 742 mmHg 67%
10:00 +13°C° 0.5 mm 6 mps 742 mmHg 63%
11:00 +13°C° 0.5 mm 5 mps 742 mmHg 63%
12:00 +13°C° 0.5 mm 5 mps 742 mmHg 63%
13:00 +13°C° 0.5 mm 5 mps 742 mmHg 63%
14:00 +14°C° 0.2 mm 4 mps 742 mmHg 59%
15:00 +14°C° 0.2 mm 4 mps 741 mmHg 55%
16:00 +15°C° 0.2 mm 4 mps 741 mmHg 51%
17:00 +13°C° 0 mm 3 mps 741 mmHg 57%
18:00 +12°C° 0 mm 3 mps 741 mmHg 63%
19:00 +10°C° 0 mm 2 mps 742 mmHg 70%
20:00 +9°C° 0 mm 2 mps 742 mmHg 71%
21:00 +8°C° 0 mm 2 mps 742 mmHg 72%
22:00 +7°C° 0 mm 2 mps 742 mmHg 74%
23:00 +7°C° 0 mm 2 mps 742 mmHg 74%

Day after tomorrow, 22 April, Thursday

Time Temperature Precipitation Wind Pressure Humidity
00:00 +7°C° 0 mm 2 mps 742 mmHg 75%
01:00 +7°C° 0 mm 3 mps 742 mmHg 75%
02:00 +7°C° 0 mm 3 mps 742 mmHg 76%
03:00 +5°C° 0 mm 3 mps 742 mmHg 76%
04:00 +5°C° 0 mm 3 mps 742 mmHg 77%
05:00 +7°C° 0 mm 3 mps 742 mmHg 78%
06:00 +6°C° 0 mm 4 mps 743 mmHg 79%
07:00 +7°C° 0 mm 4 mps 743 mmHg 80%
08:00 +6°C° 0.5 mm 4 mps 743 mmHg 82%
09:00 +6°C° 0.5 mm 4 mps 743 mmHg 84%
10:00 +6°C° 0.5 mm 4 mps 744 mmHg 86%
11:00 +6°C° 1.6 mm 4 mps 744 mmHg 79%
12:00 +7°C° 1.6 mm 4 mps 744 mmHg 73%
13:00 +7°C° 1.6 mm 5 mps 744 mmHg 66%
14:00 +8°C° 0 mm 5 mps 744 mmHg 61%
15:00 +8°C° 0 mm 5 mps 744 mmHg 56%
16:00 +8°C° 0 mm 5 mps 744 mmHg 51%
17:00 +7°C° 0 mm 4 mps 744 mmHg 57%
18:00 +7°C° 0 mm 3 mps 744 mmHg 63%
19:00 +5°C° 0 mm 2 mps 745 mmHg 69%
20:00 +5°C° 0 mm 2 mps 745 mmHg 72%
21:00 +3°C° 0 mm 3 mps 745 mmHg 75%
22:00 +2°C° 0 mm 3 mps 745 mmHg 77%
23:00 +2°C° 0 mm 3 mps 745 mmHg 79%

23 April, Friday

Time Temperature Precipitation Wind Pressure Humidity
00:00 +1°C° 0 mm 3 mps 745 mmHg 81%
01:00 +1°C° 0 mm 3 mps 745 mmHg 83%
02:00 +1°C° 0 mm 3 mps 745 mmHg 85%
03:00 0°C° 0 mm 3 mps 746 mmHg 87%
04:00 0°C° 0 mm 3 mps 746 mmHg 89%
05:00 0°C° 0 mm 4 mps 746 mmHg 84%
06:00 +1°C° 0 mm 4 mps 746 mmHg 79%
07:00 +2°C° 0 mm 5 mps 746 mmHg 73%
08:00 +3°C° 0.2 mm 6 mps 747 mmHg 70%
09:00 +4°C° 0.2 mm 7 mps 747 mmHg 67%
10:00 +4°C° 0.2 mm 7 mps 747 mmHg 65%
11:00 +4°C° 0.1 mm 7 mps 747 mmHg 63%
12:00 +5°C° 0.1 mm 7 mps 748 mmHg 61%
13:00 +5°C° 0.1 mm 7 mps 748 mmHg 60%
14:00 +5°C° 0.1 mm 7 mps 748 mmHg 60%
15:00 +5°C° 0.1 mm 7 mps 748 mmHg 61%
16:00 +5°C° 0.1 mm 7 mps 748 mmHg 61%
17:00 +5°C° 0.1 mm 6 mps 748 mmHg 63%
18:00 +5°C° 0.1 mm 5 mps 749 mmHg 64%
19:00 +3°C° 0.1 mm 5 mps 749 mmHg 66%
20:00 +1°C° 0 mm 4 mps 749 mmHg 69%
21:00 +1°C° 0 mm 3 mps 750 mmHg 73%
22:00 +1°C° 0 mm 2 mps 750 mmHg 76%
23:00 +1°C° 0 mm 2 mps 750 mmHg 75%

24 April, Saturday

Time Temperature Precipitation Wind Pressure Humidity
00:00 +1°C° 0 mm 2 mps 750 mmHg 73%
01:00 0°C° 0 mm 3 mps 750 mmHg 71%
02:00 +1°C° 0 mm 2 mps 750 mmHg 69%
03:00 +1°C° 0 mm 2 mps 750 mmHg 67%
04:00 +1°C° 0 mm 2 mps 750 mmHg 66%
05:00 +1°C° 0 mm 3 mps 750 mmHg 69%
06:00 +2°C° 0 mm 3 mps 750 mmHg 73%
07:00 +3°C° 0 mm 4 mps 749 mmHg 77%
08:00 +3°C° 0.1 mm 4 mps 749 mmHg 79%
09:00 +3°C° 0.1 mm 5 mps 749 mmHg 81%
10:00 +5°C° 0.1 mm 5 mps 749 mmHg 82%
11:00 +5°C° 0.2 mm 6 mps 749 mmHg 76%
12:00 +7°C° 0.2 mm 6 mps 748 mmHg 69%
13:00 +8°C° 0.2 mm 7 mps 748 mmHg 63%
14:00 +8°C° 0.2 mm 7 mps 748 mmHg 62%
15:00 +9°C° 0.2 mm 6 mps 747 mmHg 62%
16:00 +9°C° 0.2 mm 6 mps 747 mmHg 61%
17:00 +7°C° 0 mm 5 mps 747 mmHg 66%
18:00 +6°C° 0 mm 4 mps 748 mmHg 72%
19:00 +4°C° 0 mm 3 mps 748 mmHg 77%
20:00 +3°C° 0 mm 3 mps 748 mmHg 81%
21:00 +3°C° 0 mm 3 mps 748 mmHg 84%
22:00 +2°C° 0 mm 3 mps 749 mmHg 88%
23:00 +2°C° 0 mm 3 mps 749 mmHg 88%

25 April, Sunday

Time Temperature Precipitation Wind Pressure Humidity
00:00 +3°C° 0 mm 2 mps 749 mmHg 89%
01:00 +3°C° 0 mm 2 mps 749 mmHg 89%
02:00 +2°C° 0 mm 2 mps 750 mmHg 90%
03:00 +2°C° 0 mm 2 mps 750 mmHg 91%
04:00 +1°C° 0 mm 2 mps 750 mmHg 92%
05:00 +1°C° 0 mm 3 mps 750 mmHg 82%
06:00 +2°C° 0 mm 3 mps 751 mmHg 73%
07:00 +3°C° 0 mm 3 mps 751 mmHg 64%
08:00 +5°C° 0 mm 4 mps 751 mmHg 55%
09:00 +6°C° 0 mm 5 mps 751 mmHg 46%
10:00 +7°C° 0 mm 5 mps 751 mmHg 38%
11:00 +8°C° 0 mm 6 mps 751 mmHg 37%
12:00 +8°C° 0 mm 6 mps 751 mmHg 36%
13:00 +9°C° 0 mm 7 mps 751 mmHg 35%
14:00 +8°C° 0 mm 6 mps 751 mmHg 37%
15:00 +8°C° 0 mm 6 mps 751 mmHg 39%
16:00 +8°C° 0 mm 6 mps 751 mmHg 41%
17:00 +7°C° 0 mm 5 mps 751 mmHg 47%
18:00 +5°C° 0 mm 4 mps 751 mmHg 53%
19:00 +4°C° 0 mm 3 mps 751 mmHg 59%
20:00 +3°C° 0 mm 3 mps 751 mmHg 62%
21:00 +2°C° 0 mm 3 mps 752 mmHg 65%
22:00 +2°C° 0 mm 3 mps 752 mmHg 67%
23:00 +2°C° 0 mm 2 mps 752 mmHg 71%
Show more

We Need Your Consent

Meteoprog and our Service Providers may store and access personal data such as cookies, device identifiers or other similar technologies on your device and process such data to personalise content and ads, as well as provide social media features and to analyse the traffic.

  • Store and/or access information on your device

    Cookies, device identifiers or other information can be stored or accessed on your device for the purposes indicated above.

  • Personalised ads and content, ad and content measurement, audience insights, and products development

    Ads and content can be personalised based on a profile. More data can be added to better personalise ads and content. Ad and content performance can be measured. Insights about the audience who saw the ads and content can be derived. Such data can be used to develop or improve user’s experience, systems and software.

By clicking ‘I Agree’ you will allow the use of indicated cookies, device identifiers, web beacons or other similar technologies. Your settings can be changed in the browser on your device.

For certain purposes, legitimate interests may be relied on, rather than consent. You can read more about this in our Privacy and Cookie Policy.